Location: Mountain View
(37.3861°N, 122.0839°W)
Time: 08:49:49
(UTC-07:00)

Tiangong 1 - Visible Passes

Search period start: 23 August 2017 00:00
Search period end: 02 September 2017 00:00
Orbit: 311 x 337 km, 42.8° (Epoch: 23 August)

Date Brightness Start Highest point End Pass type
(mag) Time Alt. Az. Time Alt. Az. Time Alt. Az.
23 Aug 1.0 20:23:44 10° WNW 20:26:30 61° NNE 20:28:58 12° ESE visible
23 Aug 3.9 21:59:40 10° W 21:59:57 11° WSW 21:59:57 11° WSW visible
24 Aug 1.1 20:40:07 10° WNW 20:42:52 55° SSW 20:44:33 20° SE visible
25 Aug 2.7 20:56:48 10° W 20:59:00 21° SW 21:00:07 17° S visible
